Location: Home
(42.5358°N, 72.7383°W)
Time: 05:54:17
(UTC-05:00)

A-11 Canister half - Pass Details

Date: 05 December 2021
Orbit: 1524 x 1684 km, 47.3° (Epoch: 17 January)

Event Time Altitude Azimuth Distance (km) Brightness Sun altitude
Exits shadow 05:54:46 15° 293° (WNW) 3,513 10.2 -12.6°
Maximum altitude 06:03:33 89° 22° (NNE) 1,639 9.1 -11.1°
Drops below altitude 10° 06:13:18 10° 115° (ESE) 3,799 12.7 -9.4°
Sets 06:16:20 0° 116° (ESE) 4,761 14.0 -8.9°
